Location: Seattle
(47.6064°N, 122.3308°W)
Time: 01:45:30
(UTC-08:00)

Tiros 1 - Pass Details

Date: 01 December 2020
Orbit: 630 x 663 km, 48.4° (Epoch: 28 January)

Event Time Altitude Azimuth Distance (km) Brightness Sun altitude
Rises 12:47:14 0° 181° (S) 2,979 12.1 19.6°
Reaches altitude 10° 12:52:04 10° 138° (SE) 2,076 10.3 19.4°
Maximum altitude 12:52:34 10° 132° (SE) 2,066 10.2 19.4°
Drops below altitude 10° 12:53:04 10° 126° (SE) 2,077 10.1 19.4°
Sets 12:57:54 0° 83° (E) 2,994 10.4 19.2°
